Time,TemperatureF,DewpointF,PressureIn,WindDirection,WindDirectionDegrees,WindSpeedMPH,WindSpeedGustMPH,Humidity,HourlyPrecipIn,Conditions,Clouds,dailyrainin,SoftwareType,DateUTC
2013-03-21 00:04:00,36.3,30.0,29.66,ESE,119,5.0,9.0,79,0.00,,,0.00,weatherlink.com 1.10,2013-03-21 06:04:00,
2013-03-21 00:20:00,36.0,29.0,29.65,East,87,5.0,7.0,76,0.00,,,0.00,weatherlink.com 1.10,2013-03-21 06:20:00,
2013-03-21 00:35:00,34.9,30.0,29.65,NW,317,0.0,6.0,81,0.00,,,0.00,weatherlink.com 1.10,2013-03-21 06:35:00,
2013-03-21 00:50:00,33.8,30.0,29.66,SSE,165,2.0,8.0,85,0.00,,,0.00,weatherlink.com 1.10,2013-03-21 06:50:00,
2013-03-21 01:05:00,35.2,31.0,29.67,West,269,0.0,12.0,83,0.00,,,0.00,weatherlink.com 1.10,2013-03-21 07:05:00,
2013-03-21 01:20:00,35.2,30.0,29.68,South,173,6.0,13.0,82,0.00,,,0.00,weatherlink.com 1.10,2013-03-21 07:20:00,
2013-03-21 01:35:00,35.1,30.0,29.68,SE,138,6.0,11.0,82,0.00,,,0.00,weatherlink.com 1.10,2013-03-21 07:35:00,
2013-03-21 01:50:00,34.6,31.0,29.68,West,265,2.0,7.0,86,0.00,,,0.00,weatherlink.com 1.10,2013-03-21 07:50:00,
2013-03-21 02:05:00,34.3,31.0,29.69,West,261,0.0,4.0,87,0.00,,,0.00,weatherlink.com 1.10,2013-03-21 08:05:00,
2013-03-21 02:20:00,33.8,31.0,29.67,East,96,3.0,5.0,90,0.00,,,0.00,weatherlink.com 1.10,2013-03-21 08:20:00,
2013-03-21 02:35:00,33.2,31.0,29.68,SSE,166,3.0,5.0,92,0.00,,,0.00,weatherlink.com 1.10,2013-03-21 08:35:00,
2013-03-21 02:50:00,32.8,30.0,29.67,SSW,207,1.0,6.0,89,0.00,,,0.00,weatherlink.com 1.10,2013-03-21 08:50:00,
2013-03-21 03:05:00,33.0,30.0,29.67,South,174,1.0,6.0,88,0.00,,,0.00,weatherlink.com 1.10,2013-03-21 09:05:00,
2013-03-21 03:20:00,32.8,31.0,29.67,NNW,331,3.0,6.0,91,0.00,,,0.00,weatherlink.com 1.10,2013-03-21 09:20:00,
2013-03-21 03:35:00,32.8,31.0,29.68,NE,53,0.0,4.0,91,0.00,,,0.00,weatherlink.com 1.10,2013-03-21 09:35:00,
2013-03-21 03:50:00,32.7,30.0,29.67,SE,125,0.0,7.0,88,0.00,,,0.00,weatherlink.com 1.10,2013-03-21 09:50:00,
2013-03-21 04:05:00,31.8,29.0,29.67,SSW,192,2.0,2.0,89,0.00,,,0.00,weatherlink.com 1.10,2013-03-21 10:05:00,
2013-03-21 04:20:00,31.4,29.0,29.65,SSE,155,3.0,8.0,90,0.00,,,0.00,weatherlink.com 1.10,2013-03-21 10:20:00,
2013-03-21 04:35:00,31.0,29.0,29.66,NE,44,4.0,5.0,90,0.00,,,0.00,weatherlink.com 1.10,2013-03-21 10:35:00,
2013-03-21 04:50:00,33.0,26.0,29.66,East,100,11.0,12.0,76,0.00,,,0.00,weatherlink.com 1.10,2013-03-21 10:50:00,
2013-03-21 05:05:00,35.3,22.0,29.67,ENE,74,9.0,18.0,58,0.00,,,0.00,weatherlink.com 1.10,2013-03-21 11:05:00,
2013-03-21 05:20:00,35.8,22.0,29.68,SW,214,0.0,11.0,57,0.00,,,0.00,weatherlink.com 1.10,2013-03-21 11:20:00,
2013-03-21 05:35:00,34.1,24.0,29.70,ESE,108,11.0,14.0,67,0.00,,,0.00,weatherlink.com 1.10,2013-03-21 11:35:00,
2013-03-21 05:50:00,33.7,23.0,29.70,ESE,107,14.0,16.0,66,0.00,,,0.00,weatherlink.com 1.10,2013-03-21 11:50:00,
2013-03-21 06:05:00,34.2,21.0,29.73,SW,217,1.0,11.0,59,0.00,,,0.00,weatherlink.com 1.10,2013-03-21 12:05:00,
2013-03-21 06:20:00,33.5,20.0,29.73,NNW,335,12.0,13.0,58,0.00,,,0.00,weatherlink.com 1.10,2013-03-21 12:20:00,
2013-03-21 06:35:00,33.8,17.0,29.74,NNW,338,8.0,25.0,51,0.00,,,0.00,weatherlink.com 1.10,2013-03-21 12:35:00,
2013-03-21 06:50:00,33.0,19.0,29.76,NW,304,14.0,16.0,57,0.00,,,0.00,weatherlink.com 1.10,2013-03-21 12:50:00,
2013-03-21 07:05:00,33.0,21.0,29.77,NNE,12,10.0,11.0,62,0.00,,,0.00,weatherlink.com 1.10,2013-03-21 13:05:00,
2013-03-21 07:21:00,33.4,14.0,29.77,WNW,294,3.0,14.0,45,0.00,,,0.00,weatherlink.com 1.10,2013-03-21 13:21:00,
2013-03-21 07:36:00,33.0,15.0,29.78,West,281,2.0,17.0,48,0.00,,,0.00,weatherlink.com 1.10,2013-03-21 13:36:00,
2013-03-21 07:51:00,32.7,18.0,29.79,WNW,300,5.0,7.0,54,0.00,,,0.00,weatherlink.com 1.10,2013-03-21 13:51:00,
2013-03-21 08:06:00,32.3,17.0,29.80,South,184,0.0,4.0,53,0.00,,,0.00,weatherlink.com 1.10,2013-03-21 14:06:00,
2013-03-21 08:21:00,32.1,18.0,29.80,NNE,14,6.0,9.0,57,0.00,,,0.00,weatherlink.com 1.10,2013-03-21 14:21:00,
2013-03-21 08:51:00,30.0,22.0,29.83,North,360,10.0,19.0,73,0.00,,,0.00,weatherlink.com 1.10,2013-03-21 14:51:00,
2013-03-21 09:21:00,30.8,20.0,29.83,NE,49,2.0,7.0,65,0.00,,,0.00,weatherlink.com 1.10,2013-03-21 15:21:00,
2013-03-21 09:36:00,32.5,20.0,29.84,WSW,257,3.0,6.0,61,0.00,,,0.00,weatherlink.com 1.10,2013-03-21 15:36:00,
2013-03-21 09:51:00,32.8,18.0,29.84,NNW,347,3.0,6.0,55,0.00,,,0.00,weatherlink.com 1.10,2013-03-21 15:51:00,
2013-03-21 10:06:00,32.3,20.0,29.84,NNW,333,6.0,10.0,61,0.00,,,0.00,weatherlink.com 1.10,2013-03-21 16:06:00,
2013-03-21 10:21:00,31.8,22.0,29.84,North,10,11.0,15.0,67,0.00,,,0.00,weatherlink.com 1.10,2013-03-21 16:21:00,
2013-03-21 10:36:00,31.5,23.0,29.85,WNW,288,5.0,12.0,70,0.00,,,0.00,weatherlink.com 1.10,2013-03-21 16:36:00,
2013-03-21 10:51:00,31.1,25.0,29.85,West,277,0.0,11.0,77,0.00,,,0.00,weatherlink.com 1.10,2013-03-21 16:51:00,
2013-03-21 11:06:00,30.7,26.0,29.85,NNW,344,11.0,14.0,81,0.00,,,0.00,weatherlink.com 1.10,2013-03-21 17:06:00,
2013-03-21 11:21:00,30.9,25.0,29.86,WNW,291,7.0,18.0,78,0.00,,,0.00,weatherlink.com 1.10,2013-03-21 17:21:00,
2013-03-21 11:36:00,29.8,25.0,29.87,NW,306,12.0,21.0,82,0.00,,,0.00,weatherlink.com 1.10,2013-03-21 17:36:00,
2013-03-21 11:51:00,28.6,25.0,29.87,WNW,298,10.0,18.0,87,0.00,,,0.00,weatherlink.com 1.10,2013-03-21 17:51:00,
2013-03-21 12:06:00,29.9,27.0,29.86,North,9,5.0,16.0,88,0.00,,,0.00,weatherlink.com 1.10,2013-03-21 18:06:00,
2013-03-21 12:21:00,31.4,26.0,29.84,NNE,30,9.0,12.0,80,0.00,,,0.00,weatherlink.com 1.10,2013-03-21 18:21:00,
2013-03-21 12:36:00,32.2,24.0,29.84,North,5,7.0,9.0,72,0.00,,,0.00,weatherlink.com 1.10,2013-03-21 18:36:00,
2013-03-21 12:51:00,32.0,25.0,29.86,NNW,333,8.0,14.0,75,0.00,,,0.00,weatherlink.com 1.10,2013-03-21 18:51:00,
2013-03-21 13:06:00,32.4,24.0,29.85,West,267,3.0,13.0,72,0.00,,,0.00,weatherlink.com 1.10,2013-03-21 19:06:00,
2013-03-21 13:21:00,34.2,25.0,29.86,NW,316,2.0,11.0,69,0.00,,,0.00,weatherlink.com 1.10,2013-03-21 19:21:00,
2013-03-21 13:36:00,33.2,25.0,29.86,WNW,299,16.0,25.0,72,0.00,,,0.00,weatherlink.com 1.10,2013-03-21 19:36:00,
2013-03-21 14:06:00,29.4,27.0,29.86,North,360,12.0,15.0,89,0.00,,,0.00,weatherlink.com 1.10,2013-03-21 20:06:00,
2013-03-21 14:21:00,31.4,26.0,29.86,ENE,57,7.0,13.0,79,0.00,,,0.00,weatherlink.com 1.10,2013-03-21 20:21:00,
2013-03-21 14:36:00,33.3,26.0,29.85,North,355,5.0,14.0,73,0.00,,,0.00,weatherlink.com 1.10,2013-03-21 20:36:00,
2013-03-21 15:06:00,34.8,23.0,29.85,North,9,4.0,15.0,63,0.00,,,0.00,weatherlink.com 1.10,2013-03-21 21:06:00,
2013-03-21 15:21:00,35.0,22.0,29.85,ENE,76,2.0,10.0,60,0.00,,,0.00,weatherlink.com 1.10,2013-03-21 21:21:00,
2013-03-21 15:36:00,35.1,24.0,29.86,NW,316,11.0,21.0,63,0.00,,,0.00,weatherlink.com 1.10,2013-03-21 21:36:00,
2013-03-21 15:51:00,34.5,23.0,29.86,North,5,7.0,17.0,63,0.00,,,0.00,weatherlink.com 1.10,2013-03-21 21:51:00,
2013-03-21 16:07:00,34.7,22.0,29.86,North,349,6.0,16.0,60,0.00,,,0.00,weatherlink.com 1.10,2013-03-21 22:07:00,
2013-03-21 16:21:00,35.0,20.0,29.86,NNW,342,0.0,6.0,55,0.00,,,0.00,weatherlink.com 1.10,2013-03-21 22:21:00,
2013-03-21 16:36:00,35.2,20.0,29.87,ENE,67,2.0,4.0,55,0.00,,,0.00,weatherlink.com 1.10,2013-03-21 22:36:00,
2013-03-21 16:52:00,36.2,20.0,29.87,East,101,5.0,7.0,53,0.00,,,0.00,weatherlink.com 1.10,2013-03-21 22:52:00,
2013-03-21 17:07:00,35.7,21.0,29.87,NNW,347,8.0,11.0,55,0.00,,,0.00,weatherlink.com 1.10,2013-03-21 23:07:00,
2013-03-21 17:22:00,34.8,22.0,29.88,NW,318,4.0,17.0,61,0.00,,,0.00,weatherlink.com 1.10,2013-03-21 23:22:00,
2013-03-21 17:37:00,36.8,21.0,29.89,WNW,296,4.0,12.0,54,0.00,,,0.00,weatherlink.com 1.10,2013-03-21 23:37:00,
2013-03-21 17:52:00,37.0,20.0,29.88,NW,323,6.0,14.0,51,0.00,,,0.00,weatherlink.com 1.10,2013-03-21 23:52:00,
2013-03-21 18:07:00,36.7,19.0,29.89,WNW,294,2.0,17.0,48,0.00,,,0.00,weatherlink.com 1.10,2013-03-22 00:07:00,
2013-03-21 18:22:00,36.3,18.0,29.89,West,280,4.0,9.0,47,0.00,,,0.00,weatherlink.com 1.10,2013-03-22 00:22:00,
2013-03-21 18:37:00,35.3,18.0,29.89,NW,324,4.0,11.0,49,0.00,,,0.00,weatherlink.com 1.10,2013-03-22 00:37:00,
2013-03-21 18:52:00,35.2,19.0,29.90,NW,319,3.0,9.0,51,0.00,,,0.00,weatherlink.com 1.10,2013-03-22 00:52:00,
2013-03-21 19:07:00,35.0,19.0,29.90,NNW,327,2.0,5.0,53,0.00,,,0.00,weatherlink.com 1.10,2013-03-22 01:07:00,
2013-03-21 19:22:00,34.6,20.0,29.90,NW,321,3.0,4.0,55,0.00,,,0.00,weatherlink.com 1.10,2013-03-22 01:22:00,
2013-03-21 19:37:00,34.2,20.0,29.91,NNW,328,0.0,3.0,56,0.00,,,0.00,weatherlink.com 1.10,2013-03-22 01:37:00,
2013-03-21 19:52:00,33.1,19.0,29.90,NNE,12,2.0,5.0,57,0.00,,,0.00,weatherlink.com 1.10,2013-03-22 01:52:00,
2013-03-21 20:07:00,32.6,18.0,29.91,NW,319,0.0,4.0,56,0.00,,,0.00,weatherlink.com 1.10,2013-03-22 02:07:00,
2013-03-21 20:22:00,33.1,17.0,29.91,NNW,340,1.0,9.0,53,0.00,,,0.00,weatherlink.com 1.10,2013-03-22 02:22:00,
2013-03-21 20:37:00,32.4,19.0,29.91,NNE,14,4.0,4.0,58,0.00,,,0.00,weatherlink.com 1.10,2013-03-22 02:37:00,
2013-03-21 20:52:00,32.8,19.0,29.92,NE,39,4.0,5.0,58,0.00,,,0.00,weatherlink.com 1.10,2013-03-22 02:52:00,
2013-03-21 21:22:00,31.0,20.0,29.93,NE,42,2.0,5.0,65,0.00,,,0.00,weatherlink.com 1.10,2013-03-22 03:22:00,
2013-03-21 21:37:00,30.8,20.0,29.92,East,89,3.0,5.0,65,0.00,,,0.00,weatherlink.com 1.10,2013-03-22 03:37:00,
2013-03-21 21:52:00,31.1,20.0,29.93,NNE,16,6.0,7.0,63,0.00,,,0.00,weatherlink.com 1.10,2013-03-22 03:52:00,
2013-03-21 22:07:00,30.8,20.0,29.93,NNE,30,5.0,7.0,65,0.00,,,0.00,weatherlink.com 1.10,2013-03-22 04:07:00,
2013-03-21 22:22:00,30.2,20.0,29.93,ENE,71,5.0,8.0,67,0.00,,,0.00,weatherlink.com 1.10,2013-03-22 04:22:00,
2013-03-21 22:37:00,29.4,20.0,29.93,WSW,239,2.0,7.0,69,0.00,,,0.00,weatherlink.com 1.10,2013-03-22 04:37:00,
2013-03-21 22:52:00,29.2,21.0,29.93,SSE,160,1.0,2.0,70,0.00,,,0.00,weatherlink.com 1.10,2013-03-22 04:52:00,
2013-03-21 23:07:00,29.7,21.0,29.94,ENE,65,0.0,0.0,71,0.00,,,0.00,weatherlink.com 1.10,2013-03-22 05:07:00,
2013-03-21 23:22:00,30.2,20.0,29.93,East,97,2.0,7.0,65,0.00,,,0.00,weatherlink.com 1.10,2013-03-22 05:22:00,
2013-03-21 23:37:00,29.4,20.0,29.94,ENE,63,0.0,4.0,67,0.00,,,0.00,weatherlink.com 1.10,2013-03-22 05:37:00,
2013-03-21 23:52:00,28.4,20.0,29.94,ENE,59,4.0,5.0,70,0.00,,,0.00,weatherlink.com 1.10,2013-03-22 05:52:00,